Regional Weather Roundup
Issued by NWS

Home | Current Version | Previous Version | Graphics & Text | Print | Product List | Glossary On
Versions: 1 2 3 4 5 6 7 8 9 10 11 12 13 14 15 16 17 18 19 20 21 22 23 24 25 26 27 28
000
ASUS45 KCYS 230910
RWRWY

WYOMING REGIONAL WEATHER ROUNDUP
NATIONAL WEATHER SERVICE CHEYENNE WY
300 AM MDT WED APR 23 2014

NOTE:  "FAIR" INDICATES FEW OR NO CLOUDS BELOW 12,000 FEET
WITH NO SIGNIFICANT WEATHER AND/OR OBSTRUCTIONS TO VISIBILITY.

WYZ001-231000-
YELLOWSTONE NATIONAL PARK

CITY           SKY/WX    TMP DP  RH WIND       PRES   REMARKS
LK YELLOWSTONE   N/A     28  23  81 W8        29.67F WCI  20
W YELLOWSTONE  NOT AVBL

$$
WYZ002>013-054>058-071-098>099-231000-
NORTHERN WYOMING

CITY           SKY/WX    TMP DP  RH WIND       PRES   REMARKS
JACKSON        CLOUDY    34  30  86 S10       29.70F WCI  26
CODY           CLOUDY    48  25  40 W17       29.51R
GREYBULL       CLOUDY    58  35  42 NW12      29.45R
WORLAND        PTCLDY    51  39  63 SW10      29.46R
SHERIDAN         N/A     45  36  70 W10         N/A
BUFFALO        MOCLDY    60  32  34 VRB6G18   29.44R
GILLETTE       MOCLDY    53  39  59 SW18      29.45S
HULETT         FAIR      63  37  39 S10G17    29.43
NEWCASTLE      FAIR      59  41  51 E15G22    29.47

$$
WYZ014>020-022>026-101>103-231000-
CENTRAL WYOMING

CITY           SKY/WX    TMP DP  RH WIND       PRES   REMARKS
BIG PINEY      PTCLDY    29  23  78 W10       29.74R WCI  20
PINEDALE       PTSUNNY   32  27  80 W7        29.72S WCI  26
DUBOIS         FAIR      36  21  55 W31G39    29.56F WCI  22
LANDER         PTCLDY    47  28  47 W6        29.56R
RIVERTON       PTCLDY    46  35  65 VRB5      29.56R
CASPER         MOCLDY    51  36  56 W17       29.59R
DOUGLAS        CLOUDY    54  38  54 W18       29.55R

$$
WYZ021-027>030-104>119-231000-
SOUTHERN WYOMING

CITY           SKY/WX    TMP DP  RH WIND       PRES   REMARKS
EVANSTON       CLOUDY    30  28  92 SW17      29.81F WCI  18
FORT BRIDGER   FAIR      32  30  92 W15G22    29.82S WCI  22
ROCK SPRINGS   CLOUDY    36  29  75 W12       29.78S WCI  28
DIXON          LGT RAIN  40  34  80 NW20G31   29.79R WCI  30
RAWLINS        LGT RAIN  37  33  85 W20G26    29.72R WCI  27
SARATOGA       PTSUNNY   41  34  75 W22G33    29.72S
LARAMIE        CLOUDY    48  29  47 SW5       29.68R
CHEYENNE       MOCLDY    53  33  46 S6        29.61F
TORRINGTON     CLOUDY    51  42  71 E10       29.49F
PINE BLUFFS    FAIR      46  37  71 SW3       29.59F

$$



USA.gov is the U.S. government's official web portal to all federal, state and local government web resources and services.